{"data":{"norad_id":60298,"epoch":"2026-09-21T14:14:10.183488Z","epoch_age_seconds":91179,"freshness":"FRESH","line1":"1 60298U 24132W   26264.59317342 -.00001843  00000+0 -47638-4 0  9990","line2":"2 60298  53.1600 221.0934 0001291  92.3375 267.7774 15.31702520121577","mean_motion":15.3170252,"eccentricity":0.0001291,"inclination_deg":53.16,"raan_deg":221.0934,"arg_perigee_deg":92.3375,"mean_anomaly_deg":267.7774,"bstar":-4.7638e-5,"rev_number":12157,"period_min":94.013033287952,"perigee_km":469.84829419679,"apogee_km":471.61667229736,"semimajor_km":6848.8694832471,"source":"CELESTRAK","updated_at":"2026-09-22T09:00:49.195622Z"}}